Retour au catalogue

BREEZE-M DEB

TANK

ActifHEO
NORAD 40386·DEBRIS·🇷🇺 Russia

Lancé Feb 1, 2015 depuis Baikonur Cosmodrome

Loading…

Prochains Passages (prochaines 24 heures)

TLE

FraisSource: Space-Track

Époque: Sep 14, 2026, 10:46 UTC

1 40386U 15005C   26257.44866796  .00002698  00000-0  93265-3 0  9997
2 40386  50.7586 335.4052 5131940 212.4939 101.8154  5.34792610220527

Suivez BREEZE-M DEB en temps réel avec AllMySat

Download on the App Store